Time,TemperatureF,DewpointF,PressureIn,WindDirection,WindDirectionDegrees,WindSpeedMPH,WindSpeedGustMPH,Humidity,HourlyPrecipIn,Conditions,Clouds,dailyrainin,SoftwareType,DateUTC
2013-05-24 00:00:00,58.6,42.5,29.94,South,170,1.0,2.0,55,0.00,,,0.00,Wunderground v.1.15,2013-05-24 07:00:00,
2013-05-24 00:06:00,58.0,41.9,29.94,South,170,4.0,5.0,55,0.00,,,0.00,Wunderground v.1.15,2013-05-24 07:06:00,
2013-05-24 00:11:00,57.5,42.4,29.94,South,170,2.0,2.0,57,0.00,,,0.00,Wunderground v.1.15,2013-05-24 07:11:00,
2013-05-24 00:16:00,57.1,42.5,29.94,South,171,3.0,7.0,58,0.00,,,0.00,Wunderground v.1.15,2013-05-24 07:16:00,
2013-05-24 00:21:00,56.6,42.4,29.94,South,171,2.0,3.0,59,0.00,,,0.00,Wunderground v.1.15,2013-05-24 07:21:00,
2013-05-24 00:26:00,56.3,42.1,29.94,South,171,2.0,3.0,59,0.00,,,0.00,Wunderground v.1.15,2013-05-24 07:26:00,
2013-05-24 00:31:00,56.0,42.3,29.94,South,171,1.0,2.0,60,0.00,,,0.00,Wunderground v.1.15,2013-05-24 07:31:00,
2013-05-24 00:36:00,55.8,42.1,29.94,South,171,4.0,5.0,60,0.00,,,0.00,Wunderground v.1.15,2013-05-24 07:36:00,
2013-05-24 00:41:00,55.6,42.4,29.93,South,171,3.0,3.0,61,0.00,,,0.00,Wunderground v.1.15,2013-05-24 07:41:00,
2013-05-24 00:46:00,55.3,42.1,29.93,South,171,1.0,4.0,61,0.00,,,0.00,Wunderground v.1.15,2013-05-24 07:46:00,
2013-05-24 00:51:00,55.2,42.4,29.93,South,171,2.0,3.0,62,0.00,,,0.00,Wunderground v.1.15,2013-05-24 07:51:00,
2013-05-24 00:56:00,55.0,42.2,29.93,South,171,0.0,3.0,62,0.00,,,0.00,Wunderground v.1.15,2013-05-24 07:56:00,
2013-05-24 01:01:00,54.9,42.5,29.93,South,171,1.0,4.0,63,0.00,,,0.00,Wunderground v.1.15,2013-05-24 08:01:00,
2013-05-24 01:06:00,54.7,42.3,29.93,South,171,1.0,5.0,63,0.00,,,0.00,Wunderground v.1.15,2013-05-24 08:06:00,
2013-05-24 01:11:00,54.5,42.6,29.93,South,171,2.0,3.0,64,0.00,,,0.00,Wunderground v.1.15,2013-05-24 08:11:00,
2013-05-24 01:16:00,54.4,42.5,29.93,South,171,4.0,4.0,64,0.00,,,0.00,Wunderground v.1.15,2013-05-24 08:16:00,
2013-05-24 01:21:00,54.3,42.4,29.93,South,190,3.0,4.0,64,0.00,,,0.00,Wunderground v.1.15,2013-05-24 08:21:00,
2013-05-24 01:26:00,54.2,42.3,29.93,South,190,3.0,4.0,64,0.00,,,0.00,Wunderground v.1.15,2013-05-24 08:26:00,
2013-05-24 01:31:00,54.1,42.2,29.93,South,190,3.0,3.0,64,0.00,,,0.00,Wunderground v.1.15,2013-05-24 08:31:00,
2013-05-24 01:36:00,54.1,42.2,29.93,South,190,2.0,4.0,64,0.00,,,0.00,Wunderground v.1.15,2013-05-24 08:36:00,
2013-05-24 01:41:00,54.0,42.1,29.93,South,186,5.0,5.0,64,0.00,,,0.00,Wunderground v.1.15,2013-05-24 08:41:00,
2013-05-24 01:46:00,53.9,42.0,29.93,South,188,4.0,5.0,64,0.00,,,0.00,Wunderground v.1.15,2013-05-24 08:46:00,
2013-05-24 01:51:00,53.9,42.4,29.93,South,178,6.0,7.0,65,0.00,,,0.00,Wunderground v.1.15,2013-05-24 08:51:00,
2013-05-24 01:56:00,53.8,42.3,29.93,South,171,1.0,7.0,65,0.00,,,0.00,Wunderground v.1.15,2013-05-24 08:56:00,
2013-05-24 02:01:00,53.7,42.2,29.93,South,178,3.0,8.0,65,0.00,,,0.00,Wunderground v.1.15,2013-05-24 09:01:00,
2013-05-24 02:06:00,53.6,42.5,29.93,South,178,2.0,8.0,66,0.00,,,0.00,Wunderground v.1.15,2013-05-24 09:06:00,
2013-05-24 02:10:00,53.5,42.4,29.93,South,174,3.0,6.0,66,0.00,,,0.00,Wunderground v.1.15,2013-05-24 09:10:00,
2013-05-24 02:15:00,53.4,42.3,29.93,South,175,4.0,8.0,66,0.00,,,0.00,Wunderground v.1.15,2013-05-24 09:15:00,
2013-05-24 02:20:00,53.3,42.2,29.93,South,176,3.0,5.0,66,0.00,,,0.00,Wunderground v.1.15,2013-05-24 09:20:00,
2013-05-24 02:25:00,53.2,42.1,29.93,South,178,2.0,8.0,66,0.00,,,0.00,Wunderground v.1.15,2013-05-24 09:25:00,
2013-05-24 02:30:00,53.2,42.1,29.93,South,178,2.0,5.0,66,0.00,,,0.00,Wunderground v.1.15,2013-05-24 09:30:00,
2013-05-24 02:35:00,53.2,42.1,29.93,South,191,8.0,8.0,66,0.00,,,0.00,Wunderground v.1.15,2013-05-24 09:35:00,
2013-05-24 02:40:00,53.1,42.4,29.93,South,189,4.0,7.0,67,0.00,,,0.00,Wunderground v.1.15,2013-05-24 09:40:00,
2013-05-24 02:45:00,53.1,42.4,29.93,SSW,192,5.0,7.0,67,0.00,,,0.00,Wunderground v.1.15,2013-05-24 09:45:00,
2013-05-24 02:50:00,53.0,42.3,29.93,South,182,4.0,6.0,67,0.00,,,0.00,Wunderground v.1.15,2013-05-24 09:50:00,
2013-05-24 02:55:00,52.9,42.2,29.93,South,182,3.0,6.0,67,0.00,,,0.00,Wunderground v.1.15,2013-05-24 09:55:00,
2013-05-24 03:00:00,52.8,42.1,29.93,South,182,1.0,3.0,67,0.00,,,0.00,Wunderground v.1.15,2013-05-24 10:00:00,
2013-05-24 03:05:00,52.7,42.4,29.93,South,184,2.0,6.0,68,0.00,,,0.00,Wunderground v.1.15,2013-05-24 10:05:00,
2013-05-24 03:10:00,52.6,42.3,29.93,South,186,2.0,5.0,68,0.00,,,0.00,Wunderground v.1.15,2013-05-24 10:10:00,
2013-05-24 03:16:00,52.6,42.3,29.93,South,186,2.0,6.0,68,0.00,,,0.00,Wunderground v.1.15,2013-05-24 10:16:00,
2013-05-24 03:21:00,52.5,42.2,29.93,South,186,0.0,3.0,68,0.00,,,0.00,Wunderground v.1.15,2013-05-24 10:21:00,
2013-05-24 03:26:00,52.4,42.1,29.93,South,186,2.0,3.0,68,0.00,,,0.00,Wunderground v.1.15,2013-05-24 10:26:00,
2013-05-24 03:31:00,52.4,42.1,29.93,South,186,0.0,1.0,68,0.00,,,0.00,Wunderground v.1.15,2013-05-24 10:31:00,
2013-05-24 03:36:00,52.4,42.1,29.93,South,186,0.0,1.0,68,0.00,,,0.00,Wunderground v.1.15,2013-05-24 10:36:00,
2013-05-24 03:41:00,52.3,42.0,29.93,South,186,0.0,0.0,68,0.00,,,0.00,Wunderground v.1.15,2013-05-24 10:41:00,
2013-05-24 03:46:00,52.2,42.0,29.93,South,186,0.0,0.0,68,0.00,,,0.00,Wunderground v.1.15,2013-05-24 10:46:00,
2013-05-24 03:51:00,52.1,41.9,29.93,South,186,0.0,0.0,68,0.00,,,0.00,Wunderground v.1.15,2013-05-24 10:51:00,
2013-05-24 03:56:00,51.9,41.7,29.93,South,186,1.0,3.0,68,0.00,,,0.00,Wunderground v.1.15,2013-05-24 10:56:00,
2013-05-24 04:01:00,51.7,41.9,29.93,South,186,1.0,1.0,69,0.00,,,0.00,Wunderground v.1.15,2013-05-24 11:01:00,
2013-05-24 04:06:00,51.6,41.8,29.93,South,186,0.0,1.0,69,0.00,,,0.00,Wunderground v.1.15,2013-05-24 11:06:00,
2013-05-24 04:11:00,51.5,41.7,29.93,South,186,3.0,4.0,69,0.00,,,0.00,Wunderground v.1.15,2013-05-24 11:11:00,
2013-05-24 04:16:00,51.4,41.9,29.93,South,186,1.0,4.0,70,0.00,,,0.00,Wunderground v.1.15,2013-05-24 11:16:00,
2013-05-24 07:01:00,50.8,42.1,29.96,South,186,1.0,2.0,72,0.00,,,0.00,Wunderground v.1.15,2013-05-24 14:01:00,
2013-05-24 07:06:00,51.0,42.3,29.96,South,186,2.0,2.0,72,0.00,,,0.00,Wunderground v.1.15,2013-05-24 14:06:00,
2013-05-24 07:11:00,51.4,42.3,29.97,South,186,0.0,1.0,71,0.00,,,0.00,Wunderground v.1.15,2013-05-24 14:11:00,
2013-05-24 07:16:00,51.8,42.7,29.97,South,186,1.0,3.0,71,0.00,,,0.00,Wunderground v.1.15,2013-05-24 14:16:00,
2013-05-24 07:21:00,52.6,42.7,29.97,South,186,2.0,2.0,69,0.00,,,0.00,Wunderground v.1.15,2013-05-24 14:21:00,
2013-05-24 07:26:00,53.1,42.8,29.97,South,186,2.0,3.0,68,0.00,,,0.00,Wunderground v.1.15,2013-05-24 14:26:00,
2013-05-24 07:31:00,53.7,43.0,29.97,South,186,2.0,2.0,67,0.00,,,0.00,Wunderground v.1.15,2013-05-24 14:31:00,
2013-05-24 07:36:00,54.1,43.0,29.97,South,186,0.0,2.0,66,0.00,,,0.00,Wunderground v.1.15,2013-05-24 14:36:00,
2013-05-24 07:41:00,54.5,43.4,29.97,South,186,0.0,1.0,66,0.00,,,0.00,Wunderground v.1.15,2013-05-24 14:41:00,
2013-05-24 07:46:00,55.0,43.4,29.97,South,186,0.0,2.0,65,0.00,,,0.00,Wunderground v.1.15,2013-05-24 14:46:00,
2013-05-24 07:51:00,55.4,43.4,29.98,South,186,0.0,0.0,64,0.00,,,0.00,Wunderground v.1.15,2013-05-24 14:51:00,
2013-05-24 07:56:00,56.0,44.0,29.98,South,186,2.0,2.0,64,0.00,,,0.00,Wunderground v.1.15,2013-05-24 14:56:00,
2013-05-24 08:01:00,56.6,44.1,29.98,South,186,0.0,1.0,63,0.00,,,0.00,Wunderground v.1.15,2013-05-24 15:01:00,
2013-05-24 08:06:00,57.1,43.8,29.98,South,186,2.0,3.0,61,0.00,,,0.00,Wunderground v.1.15,2013-05-24 15:06:00,
2013-05-24 08:11:00,57.6,43.8,29.98,South,186,2.0,3.0,60,0.00,,,0.00,Wunderground v.1.15,2013-05-24 15:11:00,
2013-05-24 08:16:00,58.2,43.9,29.98,South,186,3.0,5.0,59,0.00,,,0.00,Wunderground v.1.15,2013-05-24 15:16:00,
2013-05-24 08:21:00,58.6,43.9,29.98,South,186,2.0,4.0,58,0.00,,,0.00,Wunderground v.1.15,2013-05-24 15:21:00,
2013-05-24 08:26:00,58.9,44.1,29.98,South,186,2.0,4.0,58,0.00,,,0.00,Wunderground v.1.15,2013-05-24 15:26:00,
2013-05-24 08:31:00,59.3,44.1,29.99,South,186,3.0,6.0,57,0.00,,,0.00,Wunderground v.1.15,2013-05-24 15:31:00,
2013-05-24 08:36:00,59.5,43.8,29.98,South,186,4.0,7.0,56,0.00,,,0.00,Wunderground v.1.15,2013-05-24 15:36:00,
2013-05-24 08:41:00,59.7,44.0,29.99,South,186,2.0,4.0,56,0.00,,,0.00,Wunderground v.1.15,2013-05-24 15:41:00,
2013-05-24 08:46:00,60.0,43.8,29.98,South,186,2.0,5.0,55,0.00,,,0.00,Wunderground v.1.15,2013-05-24 15:46:00,
2013-05-24 08:51:00,60.4,44.2,29.98,South,186,3.0,3.0,55,0.00,,,0.00,Wunderground v.1.15,2013-05-24 15:51:00,
2013-05-24 08:56:00,61.0,44.2,29.99,South,186,4.0,5.0,54,0.00,,,0.00,Wunderground v.1.15,2013-05-24 15:56:00,
2013-05-24 09:01:00,61.4,44.1,29.99,South,186,3.0,4.0,53,0.00,,,0.00,Wunderground v.1.15,2013-05-24 16:01:00,
2013-05-24 09:06:00,61.7,44.4,29.99,South,179,2.0,6.0,53,0.00,,,0.00,Wunderground v.1.15,2013-05-24 16:06:00,
2013-05-24 09:11:00,61.9,44.1,29.99,South,179,1.0,4.0,52,0.00,,,0.00,Wunderground v.1.15,2013-05-24 16:11:00,
2013-05-24 09:16:00,62.5,44.6,29.99,South,176,3.0,5.0,52,0.00,,,0.00,Wunderground v.1.15,2013-05-24 16:16:00,
2013-05-24 09:21:00,62.7,43.8,29.99,SSE,155,2.0,4.0,50,0.00,,,0.00,Wunderground v.1.15,2013-05-24 16:21:00,
2013-05-24 09:26:00,63.2,44.8,29.99,SSE,155,3.0,4.0,51,0.00,,,0.00,Wunderground v.1.15,2013-05-24 16:26:00,
2013-05-24 09:31:00,63.4,44.4,29.99,SSE,150,0.0,3.0,50,0.00,,,0.00,Wunderground v.1.15,2013-05-24 16:31:00,
2013-05-24 09:36:00,63.7,44.7,29.99,SE,136,0.0,6.0,50,0.00,,,0.00,Wunderground v.1.15,2013-05-24 16:36:00,
2013-05-24 09:41:00,64.4,45.3,29.99,SE,136,3.0,5.0,50,0.00,,,0.00,Wunderground v.1.15,2013-05-24 16:41:00,
2013-05-24 09:46:00,64.8,45.7,29.99,SE,136,0.0,5.0,50,0.00,,,0.00,Wunderground v.1.15,2013-05-24 16:46:00,
2013-05-24 09:51:00,65.1,44.9,29.99,SE,136,0.0,3.0,48,0.00,,,0.00,Wunderground v.1.15,2013-05-24 16:51:00,
2013-05-24 09:56:00,65.3,45.1,29.99,SE,135,4.0,7.0,48,0.00,,,0.00,Wunderground v.1.15,2013-05-24 16:56:00,
2013-05-24 10:01:00,65.5,45.3,29.98,SE,135,0.0,3.0,48,0.00,,,0.00,Wunderground v.1.15,2013-05-24 17:01:00,
2013-05-24 10:06:00,65.9,45.1,29.98,SE,141,3.0,6.0,47,0.00,,,0.00,Wunderground v.1.15,2013-05-24 17:06:00,
2013-05-24 10:11:00,66.1,45.3,29.98,SE,141,2.0,4.0,47,0.00,,,0.00,Wunderground v.1.15,2013-05-24 17:11:00,
2013-05-24 10:16:00,65.9,45.1,29.98,SE,141,3.0,5.0,47,0.00,,,0.00,Wunderground v.1.15,2013-05-24 17:16:00,
2013-05-24 10:21:00,66.2,45.9,29.98,SE,141,7.0,7.0,48,0.00,,,0.00,Wunderground v.1.15,2013-05-24 17:21:00,
2013-05-24 10:26:00,66.7,45.3,29.98,SE,144,5.0,7.0,46,0.00,,,0.00,Wunderground v.1.15,2013-05-24 17:26:00,
2013-05-24 10:31:00,67.1,45.6,29.98,SE,142,3.0,7.0,46,0.00,,,0.00,Wunderground v.1.15,2013-05-24 17:31:00,
2013-05-24 10:36:00,67.5,45.4,29.98,SE,142,4.0,7.0,45,0.00,,,0.00,Wunderground v.1.15,2013-05-24 17:36:00,
2013-05-24 10:41:00,67.7,45.6,29.98,SE,138,4.0,5.0,45,0.00,,,0.00,Wunderground v.1.15,2013-05-24 17:41:00,
2013-05-24 10:46:00,68.4,46.2,29.98,SE,136,3.0,5.0,45,0.00,,,0.00,Wunderground v.1.15,2013-05-24 17:46:00,
2013-05-24 10:51:00,68.8,46.0,29.98,SE,134,0.0,3.0,44,0.00,,,0.00,Wunderground v.1.15,2013-05-24 17:51:00,
2013-05-24 10:56:00,69.1,46.3,29.98,SE,134,0.0,3.0,44,0.00,,,0.00,Wunderground v.1.15,2013-05-24 17:56:00,
2013-05-24 11:01:00,69.2,46.9,29.98,SE,134,1.0,2.0,45,0.00,,,0.00,Wunderground v.1.15,2013-05-24 18:01:00,
2013-05-24 11:06:00,70.0,47.7,29.98,SE,134,0.0,6.0,45,0.00,,,0.00,Wunderground v.1.15,2013-05-24 18:06:00,
2013-05-24 11:11:00,70.9,46.7,29.98,SE,134,3.0,4.0,42,0.00,,,0.00,Wunderground v.1.15,2013-05-24 18:11:00,
2013-05-24 11:16:00,71.2,45.6,29.97,South,169,3.0,8.0,40,0.00,,,0.00,Wunderground v.1.15,2013-05-24 18:16:00,
2013-05-24 11:21:00,71.1,45.5,29.98,SSE,164,4.0,5.0,40,0.00,,,0.00,Wunderground v.1.15,2013-05-24 18:21:00,
2013-05-24 11:26:00,70.7,44.5,29.98,SE,146,4.0,8.0,39,0.00,,,0.00,Wunderground v.1.15,2013-05-24 18:26:00,
2013-05-24 11:31:00,70.7,45.2,29.98,SSE,155,2.0,6.0,40,0.00,,,0.00,Wunderground v.1.15,2013-05-24 18:31:00,
2013-05-24 11:36:00,71.1,45.5,29.98,SSE,154,2.0,7.0,40,0.00,,,0.00,Wunderground v.1.15,2013-05-24 18:36:00,
2013-05-24 11:41:00,71.2,45.0,29.97,ESE,116,1.0,5.0,39,0.00,,,0.00,Wunderground v.1.15,2013-05-24 18:41:00,
2013-05-24 11:46:00,71.4,45.1,29.97,SSW,205,4.0,10.0,39,0.00,,,0.00,Wunderground v.1.15,2013-05-24 18:46:00,
2013-05-24 11:51:00,71.3,44.4,29.97,SSW,211,6.0,7.0,38,0.00,,,0.00,Wunderground v.1.15,2013-05-24 18:51:00,
2013-05-24 11:56:00,71.6,46.0,29.97,SSW,208,0.0,7.0,40,0.00,,,0.00,Wunderground v.1.15,2013-05-24 18:56:00,
2013-05-24 12:01:00,72.0,44.3,29.97,SSE,165,7.0,9.0,37,0.00,,,0.00,Wunderground v.1.15,2013-05-24 19:01:00,
2013-05-24 12:06:00,72.1,44.4,29.97,South,179,1.0,10.0,37,0.00,,,0.00,Wunderground v.1.15,2013-05-24 19:06:00,
2013-05-24 12:11:00,72.6,44.1,29.97,South,180,1.0,5.0,36,0.00,,,0.00,Wunderground v.1.15,2013-05-24 19:11:00,
2013-05-24 12:16:00,72.5,43.3,29.96,SSW,200,3.0,8.0,35,0.00,,,0.00,Wunderground v.1.15,2013-05-24 19:16:00,
2013-05-24 12:21:00,72.5,43.3,29.96,South,175,4.0,7.0,35,0.00,,,0.00,Wunderground v.1.15,2013-05-24 19:21:00,
2013-05-24 12:26:00,72.5,43.3,29.96,SW,231,9.0,11.0,35,0.00,,,0.00,Wunderground v.1.15,2013-05-24 19:26:00,
2013-05-24 12:31:00,72.5,42.5,29.96,South,184,4.0,6.0,34,0.00,,,0.00,Wunderground v.1.15,2013-05-24 19:31:00,
2013-05-24 12:36:00,72.4,43.2,29.97,South,186,3.0,11.0,35,0.00,,,0.00,Wunderground v.1.15,2013-05-24 19:36:00,
2013-05-24 12:41:00,72.3,43.1,29.96,SSW,205,6.0,8.0,35,0.00,,,0.00,Wunderground v.1.15,2013-05-24 19:41:00,
2013-05-24 12:46:00,72.3,44.6,29.96,SSW,212,8.0,11.0,37,0.00,,,0.00,Wunderground v.1.15,2013-05-24 19:46:00,
2013-05-24 12:51:00,72.4,43.9,29.96,SSW,196,7.0,9.0,36,0.00,,,0.00,Wunderground v.1.15,2013-05-24 19:51:00,
2013-05-24 12:56:00,72.5,42.5,29.96,SW,234,9.0,11.0,34,0.00,,,0.00,Wunderground v.1.15,2013-05-24 19:56:00,
2013-05-24 13:01:00,72.5,42.5,29.96,SW,215,3.0,8.0,34,0.00,,,0.00,Wunderground v.1.15,2013-05-24 20:01:00,
2013-05-24 13:06:00,72.8,41.2,29.96,South,185,4.0,14.0,32,0.00,,,0.00,Wunderground v.1.15,2013-05-24 20:06:00,
2013-05-24 13:11:00,73.6,42.7,29.96,SSW,206,7.0,11.0,33,0.00,,,0.00,Wunderground v.1.15,2013-05-24 20:11:00,
2013-05-24 13:16:00,73.8,42.1,29.95,SSW,205,3.0,11.0,32,0.00,,,0.00,Wunderground v.1.15,2013-05-24 20:16:00,
2013-05-24 13:21:00,73.9,41.3,29.95,SW,219,6.0,11.0,31,0.00,,,0.00,Wunderground v.1.15,2013-05-24 20:21:00,
2013-05-24 13:26:00,74.6,40.2,29.95,SSE,168,6.0,11.0,29,0.00,,,0.00,Wunderground v.1.15,2013-05-24 20:26:00,
2013-05-24 13:31:00,73.7,38.6,29.95,SW,217,2.0,7.0,28,0.00,,,0.00,Wunderground v.1.15,2013-05-24 20:31:00,
2013-05-24 13:36:00,74.0,36.9,29.95,SW,220,4.0,11.0,26,0.00,,,0.00,Wunderground v.1.15,2013-05-24 20:36:00,
2013-05-24 13:41:00,74.0,37.9,29.95,WSW,241,8.0,10.0,27,0.00,,,0.00,Wunderground v.1.15,2013-05-24 20:41:00,
2013-05-24 13:46:00,74.5,37.3,29.95,SW,227,1.0,12.0,26,0.00,,,0.00,Wunderground v.1.15,2013-05-24 20:46:00,
2013-05-24 13:51:00,74.6,33.2,29.94,SSW,199,5.0,9.0,22,0.00,,,0.00,Wunderground v.1.15,2013-05-24 20:51:00,
2013-05-24 13:56:00,75.2,32.6,29.95,SW,235,13.0,16.0,21,0.00,,,0.00,Wunderground v.1.15,2013-05-24 20:56:00,
2013-05-24 14:01:00,75.1,31.3,29.94,SSW,194,6.0,8.0,20,0.00,,,0.00,Wunderground v.1.15,2013-05-24 21:01:00,
2013-05-24 14:06:00,75.3,30.2,29.94,SSW,211,8.0,12.0,19,0.00,,,0.00,Wunderground v.1.15,2013-05-24 21:06:00,
2013-05-24 14:11:00,75.4,26.1,29.94,WSW,237,14.0,14.0,16,0.00,,,0.00,Wunderground v.1.15,2013-05-24 21:11:00,
2013-05-24 14:16:00,75.3,27.4,29.94,WSW,254,5.0,15.0,17,0.00,,,0.00,Wunderground v.1.15,2013-05-24 21:16:00,
2013-05-24 14:21:00,75.7,26.3,29.94,SSW,197,5.0,11.0,16,0.00,,,0.00,Wunderground v.1.15,2013-05-24 21:21:00,
2013-05-24 14:26:00,76.0,26.5,29.93,South,188,8.0,11.0,16,0.00,,,0.00,Wunderground v.1.15,2013-05-24 21:26:00,
2013-05-24 14:31:00,76.0,29.4,29.94,SW,236,5.0,8.0,18,0.00,,,0.00,Wunderground v.1.15,2013-05-24 21:31:00,
2013-05-24 14:36:00,76.1,29.5,29.94,SW,216,6.0,14.0,18,0.00,,,0.00,Wunderground v.1.15,2013-05-24 21:36:00,
2013-05-24 14:41:00,76.4,29.7,29.93,WSW,249,6.0,9.0,18,0.00,,,0.00,Wunderground v.1.15,2013-05-24 21:41:00,
2013-05-24 14:46:00,76.3,31.0,29.93,SW,225,6.0,12.0,19,0.00,,,0.00,Wunderground v.1.15,2013-05-24 21:46:00,
2013-05-24 14:51:00,76.3,32.3,29.93,WSW,250,7.0,9.0,20,0.00,,,0.00,Wunderground v.1.15,2013-05-24 21:51:00,
2013-05-24 14:56:00,76.4,32.3,29.93,WSW,247,10.0,14.0,20,0.00,,,0.00,Wunderground v.1.15,2013-05-24 21:56:00,
2013-05-24 15:01:00,76.5,33.6,29.93,SW,224,3.0,7.0,21,0.00,,,0.00,Wunderground v.1.15,2013-05-24 22:01:00,
2013-05-24 15:06:00,77.0,28.8,29.93,SSW,210,7.0,17.0,17,0.00,,,0.00,Wunderground v.1.15,2013-05-24 22:06:00,
2013-05-24 15:11:00,76.5,29.8,29.93,SW,228,4.0,13.0,18,0.00,,,0.00,Wunderground v.1.15,2013-05-24 22:11:00,
2013-05-24 15:16:00,77.0,27.3,29.93,SW,225,10.0,15.0,16,0.00,,,0.00,Wunderground v.1.15,2013-05-24 22:16:00,
2013-05-24 15:21:00,77.2,25.9,29.93,SW,221,8.0,12.0,15,0.00,,,0.00,Wunderground v.1.15,2013-05-24 22:21:00,
2013-05-24 15:26:00,76.8,30.1,29.92,South,173,3.0,12.0,18,0.00,,,0.00,Wunderground v.1.15,2013-05-24 22:26:00,
2013-05-24 15:31:00,76.9,28.7,29.92,SW,236,6.0,12.0,17,0.00,,,0.00,Wunderground v.1.15,2013-05-24 22:31:00,
2013-05-24 15:36:00,76.6,29.9,29.92,SSW,209,6.0,16.0,18,0.00,,,0.00,Wunderground v.1.15,2013-05-24 22:36:00,
2013-05-24 15:41:00,76.7,31.3,29.92,SW,227,6.0,10.0,19,0.00,,,0.00,Wunderground v.1.15,2013-05-24 22:41:00,
2013-05-24 15:46:00,76.5,32.4,29.92,SW,221,6.0,19.0,20,0.00,,,0.00,Wunderground v.1.15,2013-05-24 22:46:00,
2013-05-24 15:51:00,76.4,33.6,29.92,SW,216,8.0,12.0,21,0.00,,,0.00,Wunderground v.1.15,2013-05-24 22:51:00,
2013-05-24 15:56:00,76.5,32.4,29.92,SSW,213,7.0,14.0,20,0.00,,,0.00,Wunderground v.1.15,2013-05-24 22:56:00,
2013-05-24 16:01:00,76.4,32.3,29.92,SSW,199,9.0,12.0,20,0.00,,,0.00,Wunderground v.1.15,2013-05-24 23:01:00,
2013-05-24 16:06:00,76.5,34.8,29.91,SW,219,9.0,14.0,22,0.00,,,0.00,Wunderground v.1.15,2013-05-24 23:06:00,
2013-05-24 16:11:00,76.7,32.6,29.91,SSW,212,6.0,11.0,20,0.00,,,0.00,Wunderground v.1.15,2013-05-24 23:11:00,
2013-05-24 16:16:00,76.3,32.3,29.91,SW,214,9.0,17.0,20,0.00,,,0.00,Wunderground v.1.15,2013-05-24 23:16:00,
2013-05-24 16:21:00,76.8,31.4,29.91,SSW,202,7.0,12.0,19,0.00,,,0.00,Wunderground v.1.15,2013-05-24 23:21:00,
2013-05-24 16:26:00,76.8,37.3,29.91,WSW,250,16.0,16.0,24,0.00,,,0.00,Wunderground v.1.15,2013-05-24 23:26:00,
2013-05-24 16:31:00,76.0,39.6,29.91,SSW,211,5.0,14.0,27,0.00,,,0.00,Wunderground v.1.15,2013-05-24 23:31:00,
2013-05-24 16:36:00,75.8,40.4,29.91,SW,226,11.0,14.0,28,0.00,,,0.00,Wunderground v.1.15,2013-05-24 23:36:00,
2013-05-24 16:41:00,75.4,41.8,29.91,SW,232,9.0,14.0,30,0.00,,,0.00,Wunderground v.1.15,2013-05-24 23:41:00,
2013-05-24 16:46:00,75.1,43.2,29.91,SSW,211,3.0,16.0,32,0.00,,,0.00,Wunderground v.1.15,2013-05-24 23:46:00,
2013-05-24 16:51:00,75.1,43.2,29.91,SSW,202,9.0,11.0,32,0.00,,,0.00,Wunderground v.1.15,2013-05-24 23:51:00,
2013-05-24 16:56:00,74.8,43.8,29.91,SW,236,10.0,17.0,33,0.00,,,0.00,Wunderground v.1.15,2013-05-24 23:56:00,
2013-05-24 17:01:00,74.4,44.2,29.91,SSW,194,7.0,12.0,34,0.00,,,0.00,Wunderground v.1.15,2013-05-25 00:01:00,
2013-05-24 17:06:00,74.1,43.9,29.91,SSW,212,5.0,13.0,34,0.00,,,0.00,Wunderground v.1.15,2013-05-25 00:06:00,
2013-05-24 17:11:00,73.9,44.5,29.90,SW,227,12.0,12.0,35,0.00,,,0.00,Wunderground v.1.15,2013-05-25 00:11:00,
2013-05-24 17:16:00,73.9,44.5,29.90,SSW,202,10.0,16.0,35,0.00,,,0.00,Wunderground v.1.15,2013-05-25 00:16:00,
2013-05-24 17:20:00,73.9,45.3,29.90,WSW,244,8.0,15.0,36,0.00,,,0.00,Wunderground v.1.15,2013-05-25 00:20:00,
2013-05-24 17:25:00,74.0,44.6,29.90,SSW,208,5.0,15.0,35,0.00,,,0.00,Wunderground v.1.15,2013-05-25 00:25:00,
2013-05-24 17:30:00,74.0,44.6,29.90,SW,236,9.0,11.0,35,0.00,,,0.00,Wunderground v.1.15,2013-05-25 00:30:00,
2013-05-24 17:36:00,73.7,43.6,29.90,SSW,213,5.0,14.0,34,0.00,,,0.00,Wunderground v.1.15,2013-05-25 00:36:00,
2013-05-24 17:41:00,73.6,44.2,29.90,South,189,4.0,9.0,35,0.00,,,0.00,Wunderground v.1.15,2013-05-25 00:41:00,
2013-05-24 17:46:00,73.4,43.3,29.90,SW,232,9.0,17.0,34,0.00,,,0.00,Wunderground v.1.15,2013-05-25 00:46:00,
2013-05-24 17:51:00,73.1,43.1,29.90,SW,215,9.0,11.0,34,0.00,,,0.00,Wunderground v.1.15,2013-05-25 00:51:00,
2013-05-24 17:56:00,72.9,43.6,29.90,South,184,5.0,13.0,35,0.00,,,0.00,Wunderground v.1.15,2013-05-25 00:56:00,
2013-05-24 18:01:00,73.0,43.7,29.89,SSW,200,11.0,14.0,35,0.00,,,0.00,Wunderground v.1.15,2013-05-25 01:01:00,
2013-05-24 18:06:00,72.9,43.6,29.89,SSW,204,6.0,16.0,35,0.00,,,0.00,Wunderground v.1.15,2013-05-25 01:06:00,
2013-05-24 18:11:00,72.9,43.6,29.89,WSW,251,10.0,17.0,35,0.00,,,0.00,Wunderground v.1.15,2013-05-25 01:11:00,
2013-05-24 18:15:00,72.6,43.4,29.89,SSW,196,5.0,17.0,35,0.00,,,0.00,Wunderground v.1.15,2013-05-25 01:15:00,
2013-05-24 18:20:00,72.4,43.2,29.89,SSW,193,7.0,9.0,35,0.00,,,0.00,Wunderground v.1.15,2013-05-25 01:20:00,
2013-05-24 18:25:00,72.3,41.6,29.89,SW,230,10.0,14.0,33,0.00,,,0.00,Wunderground v.1.15,2013-05-25 01:25:00,
2013-05-24 18:30:00,72.1,41.4,29.89,SW,227,10.0,14.0,33,0.00,,,0.00,Wunderground v.1.15,2013-05-25 01:30:00,
2013-05-24 18:35:00,71.8,41.9,29.88,SSW,208,12.0,18.0,34,0.00,,,0.00,Wunderground v.1.15,2013-05-25 01:35:00,
2013-05-24 18:40:00,71.4,40.0,29.88,SW,236,11.0,13.0,32,0.00,,,0.00,Wunderground v.1.15,2013-05-25 01:40:00,
2013-05-24 18:45:00,70.8,39.5,29.89,SSW,212,10.0,17.0,32,0.00,,,0.00,Wunderground v.1.15,2013-05-25 01:45:00,
2013-05-24 18:50:00,70.5,37.6,29.89,SSW,199,8.0,16.0,30,0.00,,,0.00,Wunderground v.1.15,2013-05-25 01:50:00,
2013-05-24 18:55:00,70.3,37.4,29.89,SSW,209,4.0,17.0,30,0.00,,,0.00,Wunderground v.1.15,2013-05-25 01:55:00,
2013-05-24 19:00:00,70.3,39.0,29.89,SW,227,6.0,9.0,32,0.00,,,0.00,Wunderground v.1.15,2013-05-25 02:00:00,
2013-05-24 19:05:00,70.1,39.6,29.88,SW,217,14.0,18.0,33,0.00,,,0.00,Wunderground v.1.15,2013-05-25 02:05:00,
2013-05-24 19:10:00,69.8,40.9,29.88,SSW,199,6.0,9.0,35,0.00,,,0.00,Wunderground v.1.15,2013-05-25 02:10:00,
2013-05-24 19:15:00,69.4,41.3,29.88,SSW,208,5.0,15.0,36,0.00,,,0.00,Wunderground v.1.15,2013-05-25 02:15:00,
2013-05-24 19:20:00,69.0,41.6,29.88,SW,229,14.0,14.0,37,0.00,,,0.00,Wunderground v.1.15,2013-05-25 02:20:00,
2013-05-24 19:25:00,68.6,41.3,29.88,SSW,202,7.0,14.0,37,0.00,,,0.00,Wunderground v.1.15,2013-05-25 02:25:00,
2013-05-24 19:30:00,68.2,41.6,29.89,SSW,211,5.0,8.0,38,0.00,,,0.00,Wunderground v.1.15,2013-05-25 02:30:00,
2013-05-24 19:35:00,67.7,41.8,29.89,SSW,209,12.0,13.0,39,0.00,,,0.00,Wunderground v.1.15,2013-05-25 02:35:00,
2013-05-24 19:40:00,67.2,41.4,29.89,South,178,8.0,10.0,39,0.00,,,0.00,Wunderground v.1.15,2013-05-25 02:40:00,
2013-05-24 19:45:00,66.8,41.7,29.89,SSE,157,8.0,11.0,40,0.00,,,0.00,Wunderground v.1.15,2013-05-25 02:45:00,
2013-05-24 19:50:00,66.4,41.3,29.89,SW,217,8.0,9.0,40,0.00,,,0.00,Wunderground v.1.15,2013-05-25 02:50:00,
2013-05-24 19:55:00,65.9,42.8,29.89,South,174,4.0,15.0,43,0.00,,,0.00,Wunderground v.1.15,2013-05-25 02:55:00,
2013-05-24 20:00:00,65.2,42.7,29.89,SSW,200,11.0,11.0,44,0.00,,,0.00,Wunderground v.1.15,2013-05-25 03:00:00,
2013-05-24 20:05:00,64.6,42.8,29.89,SW,236,6.0,16.0,45,0.00,,,0.00,Wunderground v.1.15,2013-05-25 03:05:00,
2013-05-24 20:10:00,64.1,42.9,29.89,South,189,4.0,9.0,46,0.00,,,0.00,Wunderground v.1.15,2013-05-25 03:10:00,
2013-05-24 20:15:00,63.7,43.1,29.89,SW,215,14.0,16.0,47,0.00,,,0.00,Wunderground v.1.15,2013-05-25 03:15:00,
2013-05-24 20:20:00,63.4,43.9,29.89,SSW,204,7.0,11.0,49,0.00,,,0.00,Wunderground v.1.15,2013-05-25 03:20:00,
2013-05-24 20:25:00,63.1,44.2,29.89,SSW,192,7.0,13.0,50,0.00,,,0.00,Wunderground v.1.15,2013-05-25 03:25:00,
2013-05-24 20:30:00,62.6,44.2,29.89,SW,219,13.0,15.0,51,0.00,,,0.00,Wunderground v.1.15,2013-05-25 03:30:00,
2013-05-24 20:35:00,62.1,44.3,29.89,SW,217,6.0,17.0,52,0.00,,,0.00,Wunderground v.1.15,2013-05-25 03:35:00,
2013-05-24 20:40:00,61.7,44.4,29.89,SSW,202,12.0,18.0,53,0.00,,,0.00,Wunderground v.1.15,2013-05-25 03:40:00,
2013-05-24 20:45:00,61.3,44.0,29.89,SSW,205,10.0,18.0,53,0.00,,,0.00,Wunderground v.1.15,2013-05-25 03:45:00,
2013-05-24 20:50:00,60.9,44.1,29.89,SW,234,3.0,11.0,54,0.00,,,0.00,Wunderground v.1.15,2013-05-25 03:50:00,
2013-05-24 20:55:00,60.6,43.9,29.89,SSW,208,7.0,16.0,54,0.00,,,0.00,Wunderground v.1.15,2013-05-25 03:55:00,
2013-05-24 21:00:00,60.4,43.7,29.89,SW,216,11.0,15.0,54,0.00,,,0.00,Wunderground v.1.15,2013-05-25 04:00:00,
2013-05-24 21:01:00,60.3,43.6,29.89,South,182,10.0,15.0,54,0.00,,,0.00,Wunderground v.1.15,2013-05-25 04:01:00,
2013-05-24 21:06:00,60.1,43.4,29.89,SSW,213,7.0,15.0,54,0.00,,,0.00,Wunderground v.1.15,2013-05-25 04:06:00,
2013-05-24 21:11:00,59.9,43.7,29.89,SW,215,7.0,15.0,55,0.00,,,0.00,Wunderground v.1.15,2013-05-25 04:11:00,
2013-05-24 21:16:00,59.6,43.9,29.89,SSW,210,12.0,15.0,56,0.00,,,0.00,Wunderground v.1.15,2013-05-25 04:16:00,
2013-05-24 21:21:00,59.4,43.7,29.89,SW,215,8.0,15.0,56,0.00,,,0.00,Wunderground v.1.15,2013-05-25 04:21:00,
2013-05-24 21:26:00,59.2,44.0,29.89,SSW,205,9.0,16.0,57,0.00,,,0.00,Wunderground v.1.15,2013-05-25 04:26:00,
2013-05-24 21:31:00,59.0,43.8,29.89,SSW,192,5.0,14.0,57,0.00,,,0.00,Wunderground v.1.15,2013-05-25 04:31:00,
2013-05-24 21:36:00,58.7,43.5,29.89,SSW,211,14.0,18.0,57,0.00,,,0.00,Wunderground v.1.15,2013-05-25 04:36:00,
2013-05-24 21:41:00,58.5,43.8,29.90,SSW,202,6.0,17.0,58,0.00,,,0.00,Wunderground v.1.15,2013-05-25 04:41:00,
2013-05-24 21:46:00,58.3,44.0,29.90,South,185,10.0,19.0,59,0.00,,,0.00,Wunderground v.1.15,2013-05-25 04:46:00,
2013-05-24 21:51:00,58.1,43.8,29.90,SSW,202,13.0,15.0,59,0.00,,,0.00,Wunderground v.1.15,2013-05-25 04:51:00,
2013-05-24 21:56:00,57.9,44.1,29.90,SW,216,10.0,17.0,60,0.00,,,0.00,Wunderground v.1.15,2013-05-25 04:56:00,
2013-05-24 22:01:00,57.7,43.9,29.90,SSW,196,8.0,15.0,60,0.00,,,0.00,Wunderground v.1.15,2013-05-25 05:01:00,
2013-05-24 22:06:00,57.5,43.7,29.90,SSW,209,10.0,18.0,60,0.00,,,0.00,Wunderground v.1.15,2013-05-25 05:06:00,
2013-05-24 22:11:00,57.3,44.0,29.90,SSW,207,9.0,18.0,61,0.00,,,0.00,Wunderground v.1.15,2013-05-25 05:11:00,
2013-05-24 22:16:00,57.1,44.2,29.90,SSW,207,11.0,18.0,62,0.00,,,0.00,Wunderground v.1.15,2013-05-25 05:16:00,
2013-05-24 22:21:00,57.0,44.1,29.91,SSW,196,6.0,15.0,62,0.00,,,0.00,Wunderground v.1.15,2013-05-25 05:21:00,
2013-05-24 22:26:00,56.8,44.3,29.91,SW,217,10.0,15.0,63,0.00,,,0.00,Wunderground v.1.15,2013-05-25 05:26:00,
2013-05-24 22:31:00,56.7,44.2,29.91,SSW,211,9.0,16.0,63,0.00,,,0.00,Wunderground v.1.15,2013-05-25 05:31:00,
2013-05-24 22:36:00,56.6,44.1,29.91,SSE,168,9.0,18.0,63,0.00,,,0.00,Wunderground v.1.15,2013-05-25 05:36:00,
2013-05-24 22:41:00,56.4,44.4,29.91,SW,228,10.0,15.0,64,0.00,,,0.00,Wunderground v.1.15,2013-05-25 05:41:00,
2013-05-24 22:46:00,56.2,44.6,29.91,SSW,207,7.0,20.0,65,0.00,,,0.00,Wunderground v.1.15,2013-05-25 05:46:00,
2013-05-24 22:51:00,56.1,44.5,29.91,SSW,209,7.0,18.0,65,0.00,,,0.00,Wunderground v.1.15,2013-05-25 05:51:00,
2013-05-24 22:56:00,55.9,44.7,29.91,SSW,194,7.0,19.0,66,0.00,,,0.00,Wunderground v.1.15,2013-05-25 05:56:00,
2013-05-24 23:01:00,55.8,44.6,29.91,SSW,193,7.0,15.0,66,0.00,,,0.00,Wunderground v.1.15,2013-05-25 06:01:00,
2013-05-24 23:06:00,55.7,44.5,29.92,SSW,203,11.0,17.0,66,0.00,,,0.00,Wunderground v.1.15,2013-05-25 06:06:00,
2013-05-24 23:11:00,55.6,44.4,29.92,WSW,246,9.0,19.0,66,0.00,,,0.00,Wunderground v.1.15,2013-05-25 06:11:00,
2013-05-24 23:15:00,55.6,44.4,29.91,South,184,8.0,19.0,66,0.00,,,0.00,Wunderground v.1.15,2013-05-25 06:15:00,
2013-05-24 23:20:00,55.6,44.8,29.91,SSW,194,5.0,8.0,67,0.00,,,0.00,Wunderground v.1.15,2013-05-25 06:20:00,
2013-05-24 23:25:00,55.5,44.7,29.91,South,185,7.0,15.0,67,0.00,,,0.00,Wunderground v.1.15,2013-05-25 06:25:00,
2013-05-24 23:30:00,55.4,45.0,29.91,South,181,15.0,15.0,68,0.00,,,0.00,Wunderground v.1.15,2013-05-25 06:30:00,
2013-05-24 23:35:00,55.3,44.9,29.91,South,184,8.0,19.0,68,0.00,,,0.00,Wunderground v.1.15,2013-05-25 06:35:00,
2013-05-24 23:40:00,55.2,44.8,29.91,South,171,6.0,12.0,68,0.00,,,0.00,Wunderground v.1.15,2013-05-25 06:40:00,
2013-05-24 23:45:00,55.1,44.7,29.91,South,189,3.0,13.0,68,0.00,,,0.00,Wunderground v.1.15,2013-05-25 06:45:00,
2013-05-24 23:50:00,55.0,45.0,29.91,SSW,202,7.0,14.0,69,0.00,,,0.00,Wunderground v.1.15,2013-05-25 06:50:00,
2013-05-24 23:55:00,54.9,44.9,29.91,South,189,5.0,14.0,69,0.00,,,0.00,Wunderground v.1.15,2013-05-25 06:55:00,